Regional Weather Roundup
Issued by NWS

Home | Current Version | Previous Version | Graphics & Text | Print | Product List | Glossary On
Versions: 1 2 3 4 5 6 7 8 9 10 11 12 13 14 15 16 17 18 19 20 21 22 23 24 25 26 27 28 29 30 31 32 33 34 35 36 37 38 39 40 41 42 43 44 45 46 47 48 49 50
000
ASUS43 KLSX 252307
RWRMO

WEATHER SUMMARY FOR MISSOURI
NATIONAL WEATHER SERVICE SPRINGFIELD MO
600 PM CDT THU MAY 25 2017

NOTE: "FAIR" INDICATES FEW OR NO CLOUDS BELOW 12,000 FEET WITH NO
       SIGNIFICANT WEATHER AND/OR OBSTRUCTIONS TO VISIBILITY.
       CURRENT SKY AND/OR WEATHER CONDITIONS ARE NOT AVAILABLE FOR
       CHILLICOTHE AND FARMINGTON.

MOZ001>031-035>038-043-044-053-054-260000-
...NORTHERN AND WESTERN MISSOURI...

CITY           SKY/WX    TMP DP  RH WIND       PRES   REMARKS
KANSAS CTY INT PTSUNNY   75  55  49 SE15      29.58F
KANSAS C DTWN  CLOUDY    77  54  44 S13G21    29.58S
LEE`S SUMMIT   MOSUNNY   73  54  51 S14       29.60F
ST JOSEPH      CLOUDY    73  55  53 SE17      29.57S
CHILLICOTHE      N/A     74  52  46 SE7G18    29.62F
KIRKSVILLE     SUNNY     72  53  51 SE9       29.67F

$$
MOZ066>068-077>081-088>096-101>105-260000-
...SOUTHWEST MISSOURI...

CITY           SKY/WX    TMP DP  RH WIND       PRES   REMARKS
SPRINGFIELD    MOSUNNY   76  55  48 SE16      29.66F
JOPLIN         SUNNY     81  59  47 SE15G21   29.61F
BRANSON        PTSUNNY   77  55  47 SE10      29.70F

$$
MOZ032>034-039>042-045>050-055>058-069>072-260000-
...CENTRAL MISSOURI...

CITY           SKY/WX    TMP DP  RH WIND       PRES   REMARKS
COLUMBIA       SUNNY     74  50  42 S10       29.68S
JEFFERSON CITY SUNNY     76  50  40 SE9       29.67F
ROLLA          SUNNY     73  53  49 S8        29.69F
SEDALIA        SUNNY     76  56  49 SE14      29.65F
WHITEMAN AFB   MOSUNNY   75  55  48 S10       29.62F
WARRENSBURG    PTSUNNY   72  54  53 SE10      29.62F
OSAGE BEACH    SUNNY     76  54  46 SE7       29.68F

$$
MOZ051-052-059>065-260000-
...EAST CENTRAL MISSOURI...

CITY           SKY/WX    TMP DP  RH WIND       PRES   REMARKS
ST LOUIS INTL  MOSUNNY   77  49  37 W6        29.70F
SPIRIT OF STL  MOSUNNY   75  51  43 W7        29.69F
ST CHARLES     SUNNY     75  49  39 CALM      29.69S

$$
MOZ072>076-082>087-097>100-106>115-260000-
...SOUTH CENTRAL AND SOUTHEAST MISSOURI...

CITY           SKY/WX    TMP DP  RH WIND       PRES   REMARKS
CAPE GIRARDEAU SUNNY     75  50  41 SW13      29.73R
FARMINGTON     MOSUNNY   75  52  44 SW10      29.73S
POPLAR BLUFF   SUNNY     75  53  46 S10       29.74R
WEST PLAINS    SUNNY     74  51  44 S7        29.74F

$$




USA.gov is the U.S. government's official web portal to all federal, state and local government web resources and services.